User: anonymous   Login
Location: Terra Rouge Observatory
(46.0000°N, 62.7500°W)
Time: 11:45:37
(UTC-03:00)
Language:

Landsat 5 - Orbit

View from above orbital plane
View from above orbital plane
View from above satellite
View from above satellite

Ground track
Ground track

The orbit data is extracted from the following two-line orbital elements,

1 14780U 84021A   17268.87831145 +.00000538 +00000-0 +55811-4 0  9996
2 14780 098.0484 022.8451 0090539 197.0496 162.7675 14.91560453315347
Epoch (UTC): 25 September 2017 21:04:46
Eccentricity: 0.0090539
inclination: 98.0484°
perigee height: 530 km
apogee height: 656 km
right ascension of ascending node: 22.8451°
argument of perigee: 197.0496°
revolutions per day: 14.91560453
mean anomaly at epoch: 162.7675°
orbit number at epoch: 31534

The dashed part of the orbit path shows where the satellite is in the earth's shadow,  

DLR